Regional Weather Roundup
Issued by NWS

Home | Current Version | Previous Version | Text Only | Print | Product List | Glossary Off
Versions: 1 2 3 4 5 6 7 8 9 10 11 12 13 14 15 16 17 18 19 20 21 22 23 24 25 26 27 28 29 30 31 32 33 34 35 36 37 38 39 40 41 42 43 44 45 46 47 48 49 50

000
ASUS43 KBIS 280210
RWRND

NORTH DAKOTA REGIONAL WEATHER ROUNDUP
NATIONAL WEATHER SERVICE BISMARCK ND
800 PM CST SAT DEC 27 2014

NOTE: "FAIR" INDICATES FEW OR NO CLOUDS BELOW 12,000 FEET WITH NO
SIGNIFICANT WEATHER AND/OR OBSTRUCTIONS TO VISIBILITY.


NDZ001>003-009>011-017-280300-
NORTHWEST NORTH DAKOTA

CITY           SKY/WX    TMP DP  RH WIND       PRES   REMARKS
WILLISTON      LGT SNOW  21  17  84 N8        30.01R FOG     WCI  11
MINOT          CLOUDY    18  13  80 N14       30.02R WCI   4
MINOT AFB      FLURRIES  14  13  96 N12       30.03R WCI   1
$$

NDZ018>021-031>035-040>046-280300-
SOUTHWEST NORTH DAKOTA

CITY           SKY/WX    TMP DP  RH WIND       PRES   REMARKS
BISMARCK       CLEAR     15  12  88 CALM      30.03R
DICKINSON      CLOUDY    23  15  71 W9        29.96S WCI  13
GARRISON         N/A     18  14  84 N6        30.01R WCI  10
HETTINGER ARPT CLOUDY    21  15  78 NW6       30.00F WCI  13
$$

NDZ004>008-012>016-024-026-027-054-280300-
NORTHEAST NORTH DAKOTA

CITY           SKY/WX    TMP DP  RH WIND       PRES   REMARKS
GRAND FORKS    CLOUDY    19  16  88 CALM      30.04R
GRND FRKS AFB  FLURRIES  19  19 100 N16       30.04R WCI   5
DEVILS LAKE    CLOUDY    21  16  79 NW12      29.98S WCI   9
$$

NDZ022-023-025-028>030-036>039-047>053-280300-
SOUTHEAST NORTH DAKOTA

CITY           SKY/WX    TMP DP  RH WIND       PRES   REMARKS
FARGO          CLOUDY    22  16  78 SW7       30.04R WCI  13
JAMESTOWN      PTCLDY    20  16  84 W10       29.99S WCI   9
$$




USA.gov is the U.S. government's official web portal to all federal, state and local government web resources and services.